• In Belarus
  • List of Countries
  • For 7 days
  • Water Temperature
  • Satellite Maps
  • Weather Map
  • Weather Widgets
  • user-avatar
    Login

    Hourly Weather Aleksandrowka

    Today, 15 August, Wednesday

    Time Temperature Precipitation Wind Pressure Humidity
    00:00 +20°C° 0 mm 3 mps 752 mmHg 75%
    01:00 +19°C° 0 mm 4 mps 753 mmHg 78%
    02:00 +19°C° 0 mm 4 mps 753 mmHg 81%
    03:00 +18°C° 0 mm 4 mps 753 mmHg 84%
    04:00 +18°C° 0 mm 4 mps 753 mmHg 86%
    05:00 +18°C° 0 mm 4 mps 754 mmHg 85%
    06:00 +19°C° 0 mm 4 mps 754 mmHg 83%
    07:00 +19°C° 0 mm 5 mps 754 mmHg 81%
    08:00 +20°C° 0.1 mm 5 mps 755 mmHg 79%
    09:00 +20°C° 0.1 mm 5 mps 755 mmHg 76%
    10:00 +21°C° 0.1 mm 5 mps 755 mmHg 73%
    11:00 +22°C° 0 mm 4 mps 755 mmHg 67%
    12:00 +23°C° 0 mm 4 mps 755 mmHg 61%
    13:00 +25°C° 0 mm 4 mps 755 mmHg 55%
    14:00 +25°C° 0 mm 4 mps 755 mmHg 53%
    15:00 +26°C° 0 mm 4 mps 755 mmHg 51%
    16:00 +26°C° 0 mm 4 mps 755 mmHg 49%
    17:00 +25°C° 0 mm 3 mps 755 mmHg 53%
    18:00 +24°C° 0 mm 2 mps 755 mmHg 58%
    19:00 +23°C° 0 mm 2 mps 756 mmHg 62%
    20:00 +22°C° 0 mm 1 mps 756 mmHg 65%
    21:00 +21°C° 0 mm 1 mps 756 mmHg 68%
    22:00 +20°C° 0 mm 1 mps 757 mmHg 70%
    23:00 +20°C° 0 mm 1 mps 757 mmHg 72%

    Tomorrow, 16 August, Thursday

    Time Temperature Precipitation Wind Pressure Humidity
    00:00 +19°C° 0 mm 1 mps 757 mmHg 74%
    01:00 +19°C° 0 mm 1 mps 757 mmHg 76%
    02:00 +19°C° 0 mm 1 mps 757 mmHg 77%
    03:00 +18°C° 0 mm 1 mps 757 mmHg 78%
    04:00 +18°C° 0 mm 1 mps 757 mmHg 79%
    05:00 +19°C° 0 mm 1 mps 757 mmHg 75%
    06:00 +20°C° 0 mm 1 mps 757 mmHg 71%
    07:00 +20°C° 0 mm 0 mps 757 mmHg 67%
    08:00 +23°C° 0 mm 1 mps 757 mmHg 61%
    09:00 +25°C° 0 mm 1 mps 757 mmHg 55%
    10:00 +27°C° 0 mm 1 mps 757 mmHg 50%
    11:00 +27°C° 0 mm 1 mps 756 mmHg 47%
    12:00 +28°C° 0 mm 2 mps 756 mmHg 45%
    13:00 +29°C° 0 mm 2 mps 756 mmHg 42%
    14:00 +28°C° 0 mm 2 mps 755 mmHg 42%
    15:00 +28°C° 0 mm 2 mps 755 mmHg 43%
    16:00 +28°C° 0 mm 2 mps 755 mmHg 43%
    17:00 +27°C° 0 mm 2 mps 755 mmHg 48%
    18:00 +26°C° 0 mm 2 mps 755 mmHg 52%
    19:00 +25°C° 0 mm 2 mps 755 mmHg 56%
    20:00 +24°C° 0 mm 2 mps 755 mmHg 59%
    21:00 +23°C° 0 mm 2 mps 755 mmHg 62%
    22:00 +21°C° 0 mm 2 mps 755 mmHg 65%
    23:00 +21°C° 0 mm 2 mps 755 mmHg 66%

    Day after tomorrow, 17 August, Friday

    Time Temperature Precipitation Wind Pressure Humidity
    00:00 +20°C° 0 mm 2 mps 755 mmHg 68%
    01:00 +20°C° 0 mm 2 mps 755 mmHg 69%
    02:00 +19°C° 0 mm 2 mps 755 mmHg 71%
    03:00 +19°C° 0 mm 2 mps 754 mmHg 72%
    04:00 +19°C° 0 mm 2 mps 754 mmHg 73%
    05:00 +20°C° 0 mm 2 mps 754 mmHg 71%
    06:00 +21°C° 0 mm 2 mps 754 mmHg 69%
    07:00 +23°C° 0 mm 2 mps 754 mmHg 67%
    08:00 +25°C° 0 mm 3 mps 754 mmHg 61%
    09:00 +27°C° 0 mm 3 mps 754 mmHg 55%
    10:00 +28°C° 0 mm 3 mps 754 mmHg 49%
    11:00 +29°C° 0 mm 3 mps 754 mmHg 46%
    12:00 +30°C° 0 mm 2 mps 753 mmHg 43%
    13:00 +31°C° 0 mm 2 mps 753 mmHg 41%
    14:00 +31°C° 0 mm 2 mps 753 mmHg 40%
    15:00 +31°C° 0 mm 1 mps 753 mmHg 39%
    16:00 +31°C° 0 mm 1 mps 753 mmHg 38%
    17:00 +30°C° 0 mm 1 mps 753 mmHg 42%
    18:00 +28°C° 0 mm 1 mps 753 mmHg 46%
    19:00 +27°C° 0 mm 1 mps 753 mmHg 50%
    20:00 +26°C° 0 mm 1 mps 753 mmHg 53%
    21:00 +25°C° 0 mm 1 mps 753 mmHg 55%
    22:00 +24°C° 0 mm 1 mps 754 mmHg 58%
    23:00 +24°C° 0 mm 1 mps 754 mmHg 60%

    18 August, Saturday

    Time Temperature Precipitation Wind Pressure Humidity
    00:00 +23°C° 0 mm 1 mps 754 mmHg 62%
    01:00 +23°C° 0 mm 1 mps 754 mmHg 64%
    02:00 +22°C° 0 mm 1 mps 754 mmHg 66%
    03:00 +21°C° 0 mm 2 mps 754 mmHg 68%
    04:00 +21°C° 0 mm 2 mps 755 mmHg 71%
    05:00 +21°C° 0 mm 2 mps 755 mmHg 72%
    06:00 +21°C° 0 mm 2 mps 755 mmHg 72%
    07:00 +23°C° 0 mm 2 mps 756 mmHg 73%
    08:00 +24°C° 0 mm 3 mps 756 mmHg 71%
    09:00 +25°C° 0 mm 3 mps 756 mmHg 68%
    10:00 +26°C° 0 mm 4 mps 757 mmHg 66%
    11:00 +27°C° 0.1 mm 4 mps 756 mmHg 62%
    12:00 +27°C° 0.1 mm 4 mps 756 mmHg 59%
    13:00 +28°C° 0.1 mm 3 mps 756 mmHg 55%
    14:00 +28°C° 0 mm 3 mps 756 mmHg 53%
    15:00 +29°C° 0 mm 3 mps 756 mmHg 51%
    16:00 +29°C° 0 mm 3 mps 756 mmHg 49%
    17:00 +28°C° 0.1 mm 2 mps 756 mmHg 54%
    18:00 +26°C° 0.1 mm 2 mps 757 mmHg 59%
    19:00 +25°C° 0.1 mm 2 mps 757 mmHg 63%
    20:00 +24°C° 0 mm 2 mps 757 mmHg 65%
    21:00 +23°C° 0 mm 2 mps 758 mmHg 67%
    22:00 +21°C° 0 mm 2 mps 758 mmHg 69%
    23:00 +21°C° 0 mm 2 mps 758 mmHg 70%

    19 August, Sunday

    Time Temperature Precipitation Wind Pressure Humidity
    00:00 +21°C° 0 mm 1 mps 758 mmHg 71%
    01:00 +20°C° 0 mm 1 mps 758 mmHg 72%
    02:00 +20°C° 0 mm 1 mps 758 mmHg 74%
    03:00 +19°C° 0 mm 1 mps 758 mmHg 76%
    04:00 +19°C° 0 mm 1 mps 758 mmHg 79%
    05:00 +20°C° 0 mm 1 mps 759 mmHg 74%
    06:00 +21°C° 0 mm 1 mps 759 mmHg 70%
    07:00 +22°C° 0 mm 1 mps 759 mmHg 66%
    08:00 +24°C° 0 mm 1 mps 759 mmHg 58%
    09:00 +25°C° 0 mm 1 mps 759 mmHg 50%
    10:00 +27°C° 0 mm 2 mps 759 mmHg 41%
    11:00 +28°C° 0 mm 2 mps 759 mmHg 38%
    12:00 +29°C° 0 mm 2 mps 759 mmHg 35%
    13:00 +29°C° 0 mm 2 mps 758 mmHg 31%
    14:00 +29°C° 0 mm 2 mps 758 mmHg 31%
    15:00 +29°C° 0 mm 2 mps 758 mmHg 31%
    16:00 +29°C° 0 mm 2 mps 758 mmHg 31%
    17:00 +28°C° 0 mm 2 mps 758 mmHg 36%
    18:00 +26°C° 0 mm 2 mps 758 mmHg 41%
    19:00 +25°C° 0 mm 2 mps 758 mmHg 46%
    20:00 +24°C° 0 mm 1 mps 758 mmHg 50%
    21:00 +23°C° 0 mm 1 mps 758 mmHg 53%
    22:00 +22°C° 0 mm 1 mps 758 mmHg 57%
    23:00 +21°C° 0 mm 1 mps 758 mmHg 60%

    20 August, Monday

    Time Temperature Precipitation Wind Pressure Humidity
    00:00 +21°C° 0 mm 1 mps 758 mmHg 62%
    01:00 +20°C° 0 mm 1 mps 758 mmHg 65%
    02:00 +20°C° 0 mm 1 mps 758 mmHg 66%
    03:00 +19°C° 0 mm 1 mps 758 mmHg 67%
    04:00 +19°C° 0 mm 1 mps 758 mmHg 68%
    05:00 +20°C° 0 mm 1 mps 758 mmHg 64%
    06:00 +21°C° 0 mm 1 mps 758 mmHg 60%
    07:00 +22°C° 0 mm 1 mps 758 mmHg 56%
    08:00 +25°C° 0 mm 1 mps 758 mmHg 50%
    09:00 +27°C° 0 mm 1 mps 758 mmHg 44%
    10:00 +29°C° 0 mm 1 mps 758 mmHg 38%
    11:00 +30°C° 0 mm 1 mps 757 mmHg 36%
    12:00 +30°C° 0 mm 1 mps 757 mmHg 34%
    13:00 +31°C° 0 mm 2 mps 757 mmHg 31%
    14:00 +31°C° 0 mm 2 mps 756 mmHg 31%
    15:00 +31°C° 0 mm 2 mps 756 mmHg 31%
    16:00 +32°C° 0 mm 2 mps 756 mmHg 31%
    17:00 +30°C° 0 mm 2 mps 756 mmHg 35%
    18:00 +28°C° 0 mm 1 mps 756 mmHg 40%
    19:00 +27°C° 0 mm 1 mps 756 mmHg 45%
    20:00 +26°C° 0 mm 1 mps 756 mmHg 47%
    21:00 +25°C° 0 mm 1 mps 756 mmHg 49%
    22:00 +24°C° 0 mm 2 mps 756 mmHg 52%
    23:00 +23°C° 0 mm 2 mps 756 mmHg 55%
    Show more